{"data":{"norad_id":53745,"intl_designator":"2022-107AX","name":"STARLINK-4656","alt_names":[],"object_type":"PAYLOAD","status":"ACTIVE","operator":null,"country":"US","launch_date":"2022-09-05","launch_site_code":"AFETR","launch_vehicle":null,"mission":null,"orbit_class":"UNKNOWN","rcs_meters":null,"size_class":null,"mass_kg":null,"dimensions":null,"purposes":["comms"],"wikipedia_slug":null,"has_3d_model":false,"image_url":null,"decayed_at":null,"tle_current":{"epoch":"2026-05-24T19:30:46.774368Z","epoch_age_seconds":87599,"freshness":"FRESH","line1":"1 53745U 22107AX  26144.81304137  .00000631  00000+0  57737-4 0  9992","line2":"2 53745  53.2150 282.5156 0001239  89.4678 270.6456 15.08837857206086","mean_motion":15.08837857,"eccentricity":0.0001239,"inclination_deg":53.215,"raan_deg":282.5156,"arg_perigee_deg":89.4678,"mean_anomaly_deg":270.6456,"bstar":5.7737e-5,"rev_number":20608,"period_min":95.437690227572,"perigee_km":538.89281307376,"apogee_km":540.60706545731,"semimajor_km":6917.8869392655,"source":"CELESTRAK","updated_at":"2026-05-25T13:38:17.540008Z"}}}